LDPE-2

导读

LDPE-2是美国太空军于2022年11月1日,由重型猎鹰火箭通过USSF-44任务发射的长寿命可变轨附属载荷搭载平台,属于长寿命推进型EELV项目,部署于地球同步轨道。 作为"太空拖车",LDPE-2具备强大轨道机动能力,可携带多类载荷开展同步轨道实验、载荷部署任务,官方称其用于提升太空态势感知与轨道威胁评估能力,因任务保密性引发外界对其太空技术试验的猜测。

基本信息
目录编号:
54219
目录名称:
LDPE-2
国际标识:
2022-144A
轨道中心:
EARTH
卫星名称:
LDPE-2
卫星全名:
--
卫星状态:
在轨 (已飞行1351 天)
发射日期:
2022-11-01 UTC
国别 :
美国 (US)
星等 :
--
轨道信息
数据来源 国际轨道数据 AOE轨道数据
星历时间 2026-07-14T00:15:18+0800
14小时前
查看轨道信息
2026-07-12T19:00:00+0800
1天前
查看轨道信息
半长轴 42088.816km 42088.816km
偏心率 0.000237 0.0002357
轨道倾角 5.675° 5.672°
近地点辐角 110.704° 111.427°
升交点赤经 63.429° 63.440°
平近点角 229.202° 147.253°
近地点 35700.703km 35700.758km
远地点 35720.655km 35720.6km
周期 1432.220分钟 1432.220分钟
每日圈数 1.005432 1.005432
详细信息
使用方式:
暂无
2D轨道图
3D轨道图
轨道高度分析图
轨道倾角分析图
轨道综合分析图
查看轨道综合分析图